Tracking 31027 objects as of 19-Jul-2025
HD Live streaming from Space Station
objects crossing your sky now

STARLINK-30552

Track STARLINK-30552 now!
10-day predictions
STARLINK-30552 is classified as:


NORAD ID: 57999
Int'l Code: 2023-153J
Perigee: 565.0 km
Apogee: 567.4 km
Inclination: 43.0 °
Period: 95.8 minutes
Semi major axis: 6937 km
RCS: Unknown
Launch date: October 5, 2023
Source: United States (US)
Launch site: AIR FORCE EASTERN TEST RANGE (AFETR)
Your satellite tracking list
FENGYUN 1C DEB
Track 1 satellite(s)




NASA's NSSDC Master Catalog

Two Line Element Set (TLE):
1 57999U 23153J   25199.47508850 -.00000622  00000-0 -30999-4 0  9992
2 57999  43.0027 261.4758 0001757 281.8938  78.1707 15.02533431 99655
Source of the keplerian elements: AFSPC